TimeEDT,TemperatureF,Dew PointF,Humidity,Sea Level PressureIn,VisibilityMPH,Wind Direction,Wind SpeedMPH,Gust SpeedMPH,PrecipitationIn,Events,Conditions,WindDirDegrees,DateUTC
12:54 AM,55.9,55.0,97,30.02,0.5,Calm,Calm,-,N/A,Fog,Fog,0,2012-10-05 04:54:00
1:54 AM,55.0,54.0,96,30.01,0.8,Calm,Calm,-,N/A,,Mist,0,2012-10-05 05:54:00
2:54 AM,55.0,54.0,96,30.00,0.8,Calm,Calm,-,N/A,,Mist,0,2012-10-05 06:54:00
3:09 AM,55.4,53.6,94,30.00,1.2,South,3.5,-,N/A,,Overcast,190,2012-10-05 07:09:00
3:27 AM,55.4,53.6,94,29.99,3.0,SSE,4.6,-,N/A,,Overcast,160,2012-10-05 07:27:00
3:54 AM,55.0,53.1,93,30.00,5.0,Calm,Calm,-,N/A,,Overcast,0,2012-10-05 07:54:00
4:54 AM,54.0,53.1,97,30.01,3.0,Calm,Calm,-,N/A,,Overcast,0,2012-10-05 08:54:00
5:01 AM,53.6,53.6,100,30.01,2.5,Calm,Calm,-,N/A,,Overcast,0,2012-10-05 09:01:00
5:09 AM,53.6,53.6,100,30.01,1.0,NNE,3.5,-,N/A,,Overcast,20,2012-10-05 09:09:00
5:16 AM,53.6,53.6,100,30.01,0.5,Calm,Calm,-,N/A,Fog,Fog,0,2012-10-05 09:16:00
5:54 AM,54.0,53.1,97,30.02,0.5,Calm,Calm,-,N/A,Fog,Fog,0,2012-10-05 09:54:00
6:54 AM,53.1,52.0,96,30.02,0.2,Calm,Calm,-,N/A,Fog,Fog,0,2012-10-05 10:54:00
7:54 AM,52.0,51.1,97,30.02,0.2,Calm,Calm,-,0.01,Fog,Fog,0,2012-10-05 11:54:00
8:20 AM,53.6,53.6,100,30.01,1.2,Calm,Calm,-,N/A,,Overcast,0,2012-10-05 12:20:00
8:28 AM,53.6,53.6,100,30.01,2.0,Calm,Calm,-,N/A,,Overcast,0,2012-10-05 12:28:00
8:54 AM,55.0,54.0,96,30.01,3.0,Calm,Calm,-,N/A,,Overcast,0,2012-10-05 12:54:00
9:54 AM,57.0,55.9,96,30.01,8.0,South,3.5,-,N/A,,Mostly Cloudy,170,2012-10-05 13:54:00
10:03 AM,57.2,55.4,94,29.99,10.0,Calm,Calm,-,N/A,,Partly Cloudy,0,2012-10-05 14:03:00
10:54 AM,66.9,59.0,76,29.97,10.0,South,5.8,-,N/A,,Clear,190,2012-10-05 14:54:00
11:54 AM,71.1,55.9,59,29.97,10.0,SSW,8.1,-,N/A,,Clear,210,2012-10-05 15:54:00
12:54 PM,69.1,55.0,61,29.95,10.0,Calm,Calm,-,N/A,,Overcast,0,2012-10-05 16:54:00
1:54 PM,71.1,55.9,59,29.92,10.0,Variable,3.5,-,N/A,,Mostly Cloudy,0,2012-10-05 17:54:00
2:54 PM,73.0,53.1,49,29.91,10.0,SSW,6.9,-,N/A,,Mostly Cloudy,210,2012-10-05 18:54:00
3:54 PM,71.1,53.1,53,29.90,10.0,Variable,3.5,-,N/A,,Mostly Cloudy,0,2012-10-05 19:54:00
4:54 PM,70.0,55.9,61,29.90,10.0,South,3.5,-,N/A,,Scattered Clouds,180,2012-10-05 20:54:00
5:54 PM,66.0,57.9,75,29.90,10.0,Calm,Calm,-,N/A,,Mostly Cloudy,0,2012-10-05 21:54:00
6:54 PM,64.0,57.9,80,29.89,10.0,Calm,Calm,-,N/A,,Mostly Cloudy,0,2012-10-05 22:54:00
7:54 PM,62.1,57.9,86,29.90,10.0,Calm,Calm,-,N/A,,Overcast,0,2012-10-05 23:54:00
8:54 PM,61.0,57.0,87,29.89,9.0,Calm,Calm,-,N/A,,Mostly Cloudy,0,2012-10-06 00:54:00
9:54 PM,60.1,57.0,90,29.89,10.0,South,3.5,-,N/A,,Overcast,170,2012-10-06 01:54:00
10:54 PM,59.0,57.0,93,29.88,8.0,Calm,Calm,-,N/A,,Mostly Cloudy,0,2012-10-06 02:54:00
11:54 PM,60.1,57.0,90,29.87,6.0,Calm,Calm,-,0.00,Rain,Light Rain,0,2012-10-06 03:54:00